Location: Unspecified
(0.0000°N, 0.0000°E)
Time: 22:26:06
(UTC+00:00)

Explorer 7 - All Passes

Search period start: 28 June 2016 00:00
Search period end: 08 July 2016 00:00
Orbit: 487 x 687 km, 50.3° (Epoch: 28 June)

Date Brightness Start Highest point End Pass type
(mag) Time Alt. Az. Time Alt. Az. Time Alt. Az.
28 Jun - 08:01:33 10° SE 08:02:20 10° SE 08:03:07 10° ESE daylight
28 Jun - 09:38:19 10° SW 09:43:03 61° NW 09:47:30 10° NNE daylight
28 Jun - 20:04:20 10° NE 20:05:05 10° NE 20:05:51 10° ENE visible
28 Jun - 21:41:47 10° WNW 21:45:26 37° SW 21:49:18 10° SSE night (unlit)
29 Jun - 08:05:09 10° S 08:08:50 21° SE 08:12:24 10° E daylight
29 Jun - 09:45:17 10° WSW 09:49:24 29° NW 09:53:18 10° N daylight
29 Jun - 20:08:20 10° N 20:11:27 23° NE 20:14:40 10° ESE visible
29 Jun - 21:49:15 10° W 21:51:53 17° SW 21:54:37 10° S night (unlit)
30 Jun - 08:10:39 10° SSW 08:15:16 43° SE 08:19:41 10° NE daylight
30 Jun - 09:53:15 10° W 09:55:45 14° NW 09:58:10 10° NNW daylight
30 Jun - 20:14:02 10° NNW 20:17:47 56° NE 20:21:44 10° SE visible
01 Jul - 08:16:45 10° SW 08:21:40 89° NNW 08:26:18 10° NE daylight
01 Jul - 20:20:23 10° NW 20:24:09 57° SW 20:28:07 10° SSE visible
02 Jul - 06:44:30 10° SSE 06:47:23 15° SE 06:50:13 10° E daylight
02 Jul - 08:23:24 10° SW 08:28:00 42° NW 08:32:24 10° NNE daylight
02 Jul - 18:47:53 10° NNE 18:50:11 15° NE 18:52:31 10° E visible
02 Jul - 20:27:23 10° WNW 20:30:33 24° SW 20:33:51 10° S visible
03 Jul - 06:49:30 10° S 06:53:49 30° SE 06:58:00 10° ENE daylight
03 Jul - 08:30:44 10° WSW 08:34:21 21° NW 08:37:51 10° N daylight
03 Jul - 18:53:04 10° NNW 18:56:32 34° NE 19:00:07 10° ESE visible
03 Jul - 20:35:57 10° WSW 20:37:01 11° SW 20:38:05 10° SW visible
04 Jul - 06:55:20 10° SSW 07:00:14 63° SE 07:04:56 10° NE daylight
04 Jul - 18:59:06 10° NW 19:02:52 89° NE 19:06:48 10° SE visible
05 Jul - 05:24:39 10° SE 05:25:53 11° SE 05:27:07 10° ESE visible
05 Jul - 07:01:42 10° SW 07:06:35 62° NW 07:11:16 10° NNE daylight
05 Jul - 19:05:46 10° WNW 19:09:15 35° SW 19:12:52 10° SSE visible
06 Jul - 05:28:33 10° S 05:32:21 22° SE 05:36:05 10° ENE visible
06 Jul - 07:08:38 10° WSW 07:12:56 30° NW 07:17:05 10° N daylight
06 Jul - 17:32:16 10° N 17:35:16 22° NE 17:38:18 10° ESE daylight
06 Jul - 19:13:17 10° W 19:15:40 16° SW 19:18:05 10° SSW visible
07 Jul - 05:34:03 10° SSW 05:38:45 43° SE 05:43:21 10° NE visible
07 Jul - 07:16:29 10° W 07:19:17 15° NW 07:22:03 10° NNW daylight
07 Jul - 17:37:56 10° NNW 17:41:36 55° NE 17:45:22 10° SE daylight
